OBJECT D, 62266

Orbit data source: Space-Track

You're viewing an Uncataloged Satellite

Recently launched and/or uncataloged satellites may have evolving metadata. Metadata may include but not limited to: Owner, Maufacturer, Bus, Motor, and Mission.

OBJECT D, 62266 is a satellite owned by IRSA (IR) in LEO that was launched on Fri, 06 Dec 2024 UTC via an SIMORGH launch vehicle from the Semnan, Iran (SEM). Unknown objects in Earth's orbit typically refer to objects detected orbiting the Earth but have not yet been identified or cataloged. These objects could be anything from previously untracked satellites, spent rocket stages, debris from satellite collisions, or even natural meteoroids temporarily captured by Earth's gravity.

Loading next visibility...
OBJECT D details
Identifier
62266, 2024-236D
Orbit
LEO
Last TLE update7 hours ago
Origin
Flag of IRIRSA (IR / IRAN)
ManufacturerIEI
MissionSpacecraft
Bus & MotorFAKHR, Unknown motor
Mass5 kg wet, 5 kg dry
Launch date (UTC)
2024-12-06 (2 months ago)
Launch vehicle
SIMORGH
Launch site
Semnan, Iran (SEM)
Object typeUnknown
Shape & HBRUnknown
Radar Cross SectionMedium (>0.1 m² and <1 m²)

Expand to show TLE details & history

TLE from 7 hours ago
0 OBJECT D
1 62266U 24236D   25025.52610286  .00522365  12711-3  10074-2 0  9995
2 62266  58.5431 163.6523 0035048 250.0448 109.6874 15.98796528  7810
Epoch: 2025-01-25T12:37Z
Definitive object data (Epoch: 2025-01-25T12:37:35.287Z)
Latitude-0.00002°
Longitude-150.8184°
Altitude287.191 km
Speed7.732 km/s
True Right ascension10h 54m 36s
True Declination0° 00' 00"
Sunlit
Object was in full shadow at TLE epoch
Visualization TLE readout
Latitude-58.30277°
Longitude127.77732°
Altitude276.734 km
Speed7.753 km/s
Apparent Right ascension07h 37m 52s
Apparent Declination-52° 20' 31"
Sunlit
Object is in daylight
Visualization observer readout
Local Sidereal Time21:07:35
Azimuth136.409° SSE
Elevation-70.244°
Doppler factor1
Orbital elements
Apogee altitude300.481 km
Perigee altitude253.83 km
Semi-major axis6,655.292 km
Eccentricity0.0035048
Inclination58.5431°
RAAN163.6523°
Arg. of periapsis250.0448°
True anomaly110.06498°
Mean anomaly109.6874°
Eccentric anomaly109.87625°
Mean motion3.99754 °/min
BSTAR0.0010074
Orbital period90.06 mins
Loading maneuver chart data...
Loading historical data...
Loading historical data...
Loading historical data...
Loading historical data...
Loading historical data...
Loading historical data...
Loading historical data...
Other satellites on launch #236 in the year 2024 (2024-12-06 UTC)

OBJECT D Visibility forecast

Observer location: undefined°, undefined

Span
Click to sort rows by Start time (UTC) header in descending order
Start Az.
Max El. time (UTC)
Max El. Az.
Max El.
End time (UTC)
End Az.
4 mins2025-01-26 11:18:35.254Z225.346° WSW2025-01-26 11:20:35.254Z26.858° NE39.034°2025-01-26 11:22:35.254Z38.946° NE
|